Flag for Poland Weather past 2 weeks in Gorzów Wielkopolski, Poland

Now
39 °F

Fog.


Feels Like: 39 °F
Forecast: 44 / 55 °F
Wind: 2 mph from Southeast

Location: Gorzow Wlkp

Current Time: Oct 26, 2014 at 1:06:08 AM

Latest Report: Oct 26, 2014 at 12:00 AM


Visibility: 1 mi

Pressure: 30.23 "Hg

Humidity: 96%

Dew point: 38 °F

Location of Gorzów WielkopolskiLocation

Historic Weather in Gorzów Wielkopolski — Graph

°F

Gorzów Wielkopolski temperature yesterday

Maximum temperature yesterday: 41 °F (at 12:00 AM)
Minimum temperature yesterday: 31 °F (at 8:00 AM)
Average temperature yesterday: 37 °F

Past Weeks' High & Low Weather Summary

 TemperatureHumidityPressure
High70 °F (Oct 19, 4:00 PM)100% (Oct 16, 4:00 AM)30.33 "Hg (Oct 16, 4:00 AM)
Low31 °F (Oct 25, 8:00 AM)64% (Oct 19, 4:00 PM)29.47 "Hg (Oct 22, 12:00 AM)
Average53 °F92%29.93 "Hg
* Reported Oct 10 11:00 PM — Oct 25 11:00 PM, Gorzów Wielkopolski, Weather by CustomWeather, © 2014

Note: Actual official high and low records may vary slightly from our data, if they occured in-between our weather recording intervals... More about our weather records

Advertising

Gorzów Wielkopolski weather history for previous 24 hours

 ConditionsComfort  
Time TempWeatherWind HumidityBarometerVisibility
11:00 PM
Oct 25
38 °FFog.2 mph95%30.22 "Hg1 mi
10:00 PM39 °FFog.2 mph95%30.22 "Hg2 mi
9:00 PM40 °FFog.2 mph93%30.22 "Hg2 mi
8:00 PM41 °FFog.2 mph93%30.21 "Hg2 mi
7:00 PM41 °FFog.2 mph92%30.20 "Hg2 mi
6:00 PM41 °FFog.2 mph92%30.20 "Hg3 mi
5:00 PM41 °FFog.3 mph90%30.19 "Hg4 mi
4:00 PM40 °FFog.3 mph89%30.19 "Hg4 mi
3:00 PM40 °FFog.3 mph88%30.19 "Hg4 mi
2:00 PM40 °FFog.2 mph89%30.20 "Hg4 mi
1:00 PM38 °FFog.3 mph90%30.20 "Hg3 mi
12:00 PM37 °FFog.5 mph92%30.21 "Hg2 mi
11:00 AM35 °FFog.3 mph95%30.21 "Hg2 mi
10:00 AM33 °FFog.3 mph97%30.21 "Hg1 mi
9:00 AM32 °FFog.3 mph97%30.21 "Hg2 mi
8:00 AM31 °FFog.2 mph98%30.22 "Hg2 mi
7:00 AM31 °FFog.3 mph97%30.22 "Hg2 mi
6:00 AM32 °FFog.2 mph96%30.22 "Hg2 mi
5:00 AM33 °FFog.2 mph96%30.23 "Hg2 mi
4:00 AM35 °FFog.3 mph95%30.23 "Hg2 mi
3:00 AM36 °FFog.3 mph94%30.25 "Hg2 mi
2:00 AM38 °FFog.3 mph94%30.25 "Hg1 mi
1:00 AM40 °FFog.2 mph93%30.26 "Hg2 mi
Weather by CustomWeather, © 2014

See weather overviewHow to use our weather pages